Vertical_Velocity
1 0 -0 -1 -1 -0 -1 -1 -1 -1 4 3 -2 -1 -0 2 2 1 -1 -1 -0 1 -2 -2 -2 -0 -3 -3 -1 -1 2 5 -3 -4 -3 -2 -1 3
0 1 1 -0 -1 -1 -0 -1 -0 -2 -4 -3 1 -0 -0 -1 1 1 1 1 -2 -2 -0 -1 -3 -2 1 1 0 2 -0 0 -0 -2 -1 -2 -2 -3
-1 1 1 -1 -0 -1 0 0 0 -1 -1 3 -0 -0 -1 -1 -2 0 -0 -1 1 -0 -0 0 1 -1 -2 -2 -1 1 0 -1 -1 1 0 -1 -3 -4
-1 -0 1 -2 0 -2 -0 -0 -0 -1 -2 -0 -1 -1 -2 -1 -2 -3 -1 0 -1 -1 -1 -1 -1 1 1 0 -0 -1 0 2 1 0 2 1 1 1
-0 -2 2 -1 1 -0 1 2 1 0 -1 -0 1 -1 1 -2 -2 -1 -2 -1 0 -0 -1 -0 -1 -0 1 1 2 2 2 1 2 2 -0 2 2 -0
1 1 0 -0 0 -2 -1 -0 -2 -1 -2 -2 -0 0 -1 0 -2 -2 -2 -1 -2 1 2 1 1 -1 -2 -0 1 1 0 0 -2 -1 -1 -1 -3 -1
1 1 1 1 0 -0 -2 1 -1 -1 -1 -3 -1 -2 1 -1 -1 -2 -0 -2 -0 -1 -1 1 1 2 1 -0 0 -0 -2 -2 -1 -1 -1 -1 -0 -0
2 1 0 1 2 -1 -1 -1 -1 -1 1 -2 -1 -1 1 -2 -1 1 -0 0 -1 2 -0 0 -2 -0 -2 2 1 1 1 2 3 0 1 -0 -1 -3
1 1 1 1 -0 0 1 -1 0 2 1 -1 1 2 -2 1 -1 -3 -2 -2 -0 1 -1 -1 2 -3 -1 -1 1 1 1 -1 -2 -1 -1 1 -1 2
-1 -1 0 2 2 2 -0 -1 -0 -2 2 1 -2 -2 1 -0 0 -1 -0 0 -0 -5 -4 -4 4 0 1 -0 1 -0 -2 2 0 -1 -0 0 -0 -2
-2 -1 -0 -0 1 -1 1 2 1 1 2 2 1 -0 -1 -1 -0 1 3 -1 -2 -2 1 -2 -0 -3 -1 0 -0 2 -2 1 -2 -1 0 -2 -1 -2
0 0 -1 -1 -1 -2 -0 -2 -0 5 -3 1 -1 0 1 2 5 2 -1 -1 -0 0 4 -3 2 1 -2 -1 -2 1 2 -0 0 -1 -1 -2 -2 -3
-2 -1 1 0 0 -0 -3 0 0 -3 -1 -3 -0 -1 -0 1 2 4 -1 -2 1 3 1 -1 2 1 1 -1 3 -1 -0 1 1 0 0 -0 -1 -1
0 -0 -1 -1 2 -0 -4 0 1 -1 0 -0 0 2 2 5 4 -2 -3 1 -1 2 2 2 -1 1 -3 -0 -1 4 1 0 0 1 1 2 -0 -2
-2 1 1 -2 -3 -0 -1 -0 -2 -2 -2 0 2 1 -0 -2 -1 0 1 2 2 1 1 1 2 1 -0 3 -1 1 -2 0 -1 0 -3 2 -2 -4
-1 -0 1 -2 -1 -0 -1 -1 -2 -4 -2 0 2 -0 1 1 -0 0 -1 1 2 2 2 3 -4 -0 2 1 -3 -0 -3 -0 2 -2 -0 1 -1 -7
1 -0 0 -1 -1 -2 -2 -2 -2 0 1 1 2 2 2 -1 0 0 1 -1 -2 0 2 2 3 0 0 -1 -1 -3 1 0 -5 -3 -1 1 6 -6
3 1 1 0 -1 -1 -3 0 0 0 2 1 3 2 0 2 2 0 -0 -0 0 0 1 1 2 0 -1 1 3 -1 3 3 0 -0 0 -1 11 -9
-0 1 1 -2 -1 -2 -2 0 2 3 0 1 1 1 -0 0 0 -0 1 0 -1 1 3 2 2 -1 -1 3 7 1 -1 -1 0 0 -0 -0 5 3
-2 -3 -2 -2 -1 -2 -1 -0 2 2 0 -1 1 -1 -1 -0 1 0 -2 1 2 3 2 -1 -1 3 1 -0 -1 3 -0 -0 0 2 0 2 -1 2
0 -2 -3 -2 -0 1 0 1 0 -0 0 0 2 1 -1 -1 0 -1 -1 1 1 0 -0 2 4 -1 -2 0 1 0 -0 -0 0 1 1 1 -0 2
-1 -2 -2 -1 -0 0 1 0 1 0 1 1 -1 -0 0 0 -0 -0 0 0 -0 2 2 -0 1 -1 0 0 -1 -0 -0 -0 0 -0 2 1 2 5
-2 -2 1 -1 -1 0 1 -0 2 1 1 0 1 -0 -1 -1 -1 1 1 1 -0 2 1 2 0 0 -0 -0 -1 1 -1 -1 1 -1 2 3 1 1
Height
3058 3056 3054 3051 3050 3048 3046 3044 3042 3042 3041 3038 3035 3033 3031 3030 3028 3026 3024 3022 3021 3018 3016 3014 3013 3011 3009 3008 3007 3008 3009 3009 3011 3013 3014 3016 3017 3018
3053 3051 3049 3047 3045 3043 3041 3039 3037 3036 3036 3034 3033 3030 3029 3026 3025 3023 3020 3018 3017 3015 3012 3010 3011 3010 3008 3006 3004 3004 3006 3007 3008 3009 3010 3011 3012 3012
3048 3046 3044 3041 3039 3037 3035 3033 3031 3029 3029 3030 3027 3025 3023 3021 3020 3018 3017 3014 3012 3010 3009 3007 3005 3004 3005 3005 3004 3003 3002 3001 3002 3004 3005 3006 3007 3007
3041 3040 3039 3036 3034 3031 3029 3028 3025 3023 3022 3023 3022 3020 3019 3016 3014 3012 3011 3010 3008 3006 3004 3003 3002 3001 3000 2999 2999 2999 2999 2999 2999 2998 2999 3000 3000 3000
3034 3032 3031 3029 3028 3025 3024 3022 3020 3018 3016 3015 3015 3014 3012 3010 3008 3007 3005 3004 3003 3001 2999 2998 2996 2996 2995 2994 2994 2993 2993 2993 2993 2994 2993 2993 2993 2994
3025 3024 3024 3022 3021 3019 3017 3016 3014 3013 3011 3009 3008 3007 3005 3003 3002 3000 2999 2997 2997 2996 2995 2994 2992 2991 2990 2989 2989 2988 2987 2987 2986 2987 2986 2987 2987 2985
3017 3016 3015 3014 3012 3010 3009 3008 3007 3005 3004 3003 3002 3000 2998 2996 2995 2994 2992 2990 2989 2988 2988 2987 2986 2986 2985 2984 2982 2982 2981 2980 2980 2980 2979 2979 2979 2978
3009 3007 3006 3004 3003 3001 3000 2999 2998 2997 2996 2994 2992 2992 2990 2989 2988 2986 2984 2983 2982 2981 2980 2979 2979 2978 2978 2977 2977 2976 2975 2974 2974 2973 2973 2972 2972 2971
2999 2997 2996 2995 2993 2992 2991 2990 2990 2989 2987 2985 2984 2983 2982 2980 2980 2979 2977 2976 2975 2974 2972 2972 2971 2970 2970 2970 2969 2969 2968 2968 2967 2967 2966 2965 2964 2963
2990 2988 2987 2985 2984 2982 2981 2982 2981 2981 2979 2976 2974 2974 2973 2972 2971 2969 2968 2967 2966 2966 2965 2964 2965 2963 2962 2962 2962 2962 2961 2961 2960 2960 2958 2957 2956 2955
2981 2979 2978 2977 2975 2973 2972 2972 2971 2972 2968 2966 2965 2964 2963 2962 2960 2959 2959 2958 2958 2957 2957 2955 2957 2954 2954 2954 2954 2954 2954 2954 2953 2952 2952 2950 2949 2948
2973 2971 2970 2969 2968 2966 2963 2962 2962 2961 2956 2956 2954 2953 2952 2951 2950 2949 2948 2948 2948 2947 2949 2947 2948 2947 2945 2945 2945 2945 2945 2945 2945 2945 2944 2943 2941 2940
2964 2963 2961 2959 2958 2956 2954 2953 2951 2949 2946 2945 2943 2942 2941 2940 2940 2939 2937 2938 2938 2937 2938 2937 2938 2937 2937 2937 2937 2937 2937 2937 2937 2937 2936 2935 2933 2932
2955 2953 2952 2950 2948 2946 2943 2942 2940 2937 2935 2934 2932 2931 2930 2930 2929 2926 2926 2927 2927 2927 2927 2927 2928 2928 2928 2929 2929 2929 2929 2929 2929 2929 2928 2928 2926 2925
2944 2943 2941 2939 2936 2934 2932 2930 2927 2926 2924 2922 2921 2920 2919 2918 2917 2916 2916 2917 2916 2916 2916 2916 2917 2918 2918 2919 2920 2920 2920 2921 2921 2921 2920 2919 2918 2916
2931 2931 2929 2927 2926 2924 2922 2920 2917 2914 2913 2912 2910 2909 2908 2907 2907 2907 2907 2906 2906 2906 2906 2906 2906 2908 2908 2909 2910 2911 2911 2911 2912 2912 2911 2911 2909 2908
2923 2921 2920 2918 2917 2915 2913 2910 2908 2904 2901 2900 2900 2900 2899 2899 2898 2897 2897 2896 2896 2896 2896 2896 2896 2897 2897 2898 2899 2900 2900 2901 2902 2903 2902 2902 2900 2899
2918 2915 2913 2911 2909 2907 2904 2902 2898 2895 2892 2890 2890 2890 2890 2890 2889 2888 2888 2887 2888 2887 2887 2887 2888 2888 2888 2889 2890 2891 2892 2893 2893 2893 2893 2893 2893 2891
2911 2909 2907 2904 2902 2899 2897 2894 2891 2888 2886 2884 2882 2881 2880 2880 2879 2879 2879 2878 2879 2878 2878 2879 2880 2880 2880 2881 2884 2883 2883 2882 2882 2883 2884 2885 2885 2884
2904 2902 2899 2897 2894 2891 2889 2887 2884 2881 2878 2876 2875 2873 2872 2872 2871 2871 2870 2870 2869 2869 2870 2870 2871 2872 2873 2873 2873 2874 2874 2874 2875 2876 2877 2878 2877 2876
2895 2893 2891 2888 2886 2883 2882 2880 2877 2873 2870 2869 2867 2866 2866 2865 2865 2864 2864 2863 2861 2861 2862 2863 2864 2864 2864 2865 2866 2867 2867 2868 2869 2870 2871 2872 2871 2870
2884 2883 2882 2880 2877 2875 2874 2872 2870 2868 2865 2863 2861 2860 2860 2859 2858 2858 2857 2856 2855 2854 2855 2856 2857 2857 2858 2859 2860 2861 2862 2862 2864 2865 2866 2866 2866 2865
2875 2874 2873 2871 2869 2867 2865 2864 2863 2862 2859 2857 2856 2855 2854 2853 2852 2852 2851 2850 2848 2848 2848 2850 2850 2852 2853 2854 2855 2856 2857 2858 2859 2860 2861 2861 2860 2859